This is the latest recevied weather packets stored in our database for station/object OE6ACM-14. If no packets are shown the sender has not sent any weather packets the latest 1 day(s).
| Time | Temp. | Humidity | Pressure | Rain* | Wind** | Luminosity | Snow |
|---|---|---|---|---|---|---|---|
| 1778095779 | 15.56° C | 49% | 919.4 hPa | - | - | - | - |
| 1778095479 | 15.56° C | 49% | 919.4 hPa | - | - | - | - |
| 1778093979 | 15.56° C | 52% | 919.2 hPa | - | - | - | - |
| 1778093079 | 15° C | 56% | 918.9 hPa | - | - | - | - |
| 1778092179 | 15.56° C | 55% | 918.6 hPa | - | - | - | - |
| 1778090079 | 16.11° C | 50% | 918.1 hPa | - | - | - | - |
| 1778088279 | 16.67° C | 48% | 918 hPa | - | - | - | - |
| 1778087979 | 17.22° C | 47% | 918.2 hPa | - | - | - | - |
| 1778087679 | 17.22° C | 47% | 918 hPa | - | - | - | - |
| 1778086779 | 17.22° C | 46% | 918 hPa | - | - | - | - |
| 1778085579 | 18.33° C | 44% | 918 hPa | - | - | - | - |
| 1778084679 | 18.89° C | 44% | 918.1 hPa | - | - | - | - |
| 1778084379 | 18.89° C | 43% | 918.1 hPa | - | - | - | - |
| 1778084079 | 18.89° C | 43% | 918.2 hPa | - | - | - | - |
| 1778083779 | 18.33° C | 43% | 918.2 hPa | - | - | - | - |
| 1778083479 | 18.89° C | 43% | 918.3 hPa | - | - | - | - |
| 1778081679 | 19.44° C | 41% | 918.3 hPa | - | - | - | - |
| 1778081379 | 19.44° C | 40% | 918.4 hPa | - | - | - | - |
| 1778080179 | 20.56° C | 39% | 918.4 hPa | - | - | - | - |
| 1778079879 | 19.44° C | 39% | 918.4 hPa | - | - | - | - |
| 1778078679 | 20° C | 39% | 918.3 hPa | - | - | - | - |
| 1778076879 | 21.67° C | 37% | 918.4 hPa | - | - | - | - |
| 1778076580 | 20.56° C | 38% | 918.5 hPa | - | - | - | - |
| 1778076279 | 20.56° C | 36% | 918.5 hPa | - | - | - | - |
| 1778075979 | 21.11° C | 36% | 918.6 hPa | - | - | - | - |
* Rain since midnight (hover to see other rain measurements)
** Current wind speed in m/s (hover to see current wind gust speed)